Regional Weather Roundup
Issued by NWS Green Bay, WI

Home | Current Version | Previous Version | Text Only | Print | Product List | Glossary On
Versions: 1 2 3 4 5 6 7 8 9 10 11 12 13 14 15 16 17 18 19 20 21 22 23 24 25 26 27 28 29 30 31 32 33 34 35 36 37 38 39 40 41 42 43 44 45 46 47 48 49 50
000
ASUS43 KGRB 232011
RWRGRB

NORTH-CENTRAL AND NORTHEAST WISCONSIN REGIONAL WEATHER ROUNDUP
NATIONAL WEATHER SERVICE GREEN BAY WI
300 PM CDT SAT SEP 23 2017

WIZ005-009-010>012-018-019-232100-
NORTH CENTRAL WISCONSIN

CITY           SKY/WX    TMP DP  RH WIND       PRES   REMARKS
IRONWOOD       SUNNY     87  71  58 SW14      29.96F HX  93
MANITOWISH WTR NOT AVBL
ARBOR VITAE    SUNNY     85  70  60 S13G18    30.02S
EAGLE RIVER    SUNNY     86  64  48 SW9G17    30.02F
LAND O LAKES   SUNNY     86  67  52 S6        30.03F
RHINELANDER    MOSUNNY   85  68  56 SW13G21   30.04F
PHILLIPS       MOSUNNY   85  70  61 S13       30.01S HX  90
ANTIGO         SUNNY     86  65  49 SW15      30.06S
TOMAHAWK       MOSUNNY   86  66  52 S3        30.03F
MERRILL        PTSUNNY   88  67  50 S12       30.04F HX  91
$$

WIZ013-073-232100-
NORTHEAST WISCONSIN

CITY           SKY/WX    TMP DP  RH WIND       PRES   REMARKS
IRON MOUNTAIN  SUNNY     90  63  40 SW9       30.01S HX  91
MARINETTE      SUNNY     87  69  54 SW14      30.02F HX  91
OCONTO         SUNNY     90  66  45 SW8G16    30.02F HX  92
$$

WIZ017-030-035>037-045-232100-
CENTRAL WISCONSIN

CITY           SKY/WX    TMP DP  RH WIND       PRES   REMARKS
MEDFORD        MOSUNNY   85  67  54 S12       30.03S
WAUSAU         PTSUNNY   86  65  49 S12       30.02F
MOSINEE        PTSUNNY   88  66  48 S14       30.04F HX  90
MARSHFIELD     MOSUNNY   85  64  49 S9        30.03F
WISC RAPIDS    SUNNY     90  68  48 SW13      30.04F HX  94
STEVENS POINT  MOSUNNY   87  66  50 S10       30.04S
WAUPACA        SUNNY     92  65  41 S9        30.03F HX  94
SHAWANO        MOSUNNY   91  66  43 SW9       30.02F HX  93
CLINTONVILLE   MOSUNNY   90  64  43 SW12      30.03F HX  91
WAUTOMA        MOSUNNY   89  67  47 S7        30.03F HX  92
$$

WIZ038-039-048-051-232100-
FOX VALLEY

CITY           SKY/WX    TMP DP  RH WIND       PRES   REMARKS
NWS GREEN BAY  SUNNY     90  68  48 S10       30.04F HX  94
APPLETON       MOSUNNY   90  57  33 S12       30.04F
OSHKOSH        SUNNY     88  66  48 S8        30.04F HX  90
FOND DU LAC    SUNNY     89  62  40 SW9       30.05F
$$

WIZ022-050-052-232100-
EAST CENTRAL WISCONSIN

CITY           SKY/WX    TMP DP  RH WIND       PRES   REMARKS
EPHRAIM        FAIR      86  70  58 S6        30.03F HX  90
WASHINGTON ISL FAIR      77  67  73 S9        30.03F
STURGEON BAY   PTSUNNY   89  69  51 SE10      30.04F HX  93
MANITOWOC      SUNNY     83  69  62 S13       30.06F
SHEBOYGAN      SUNNY     88  71  57 SE10      30.06F HX  94
$$

LMZ563-521-522-541>543-232100-
LAKESHORE

STATION/POSITION TIME  TEMP    WIND        PRES    VSBY  WAVE
                       AIR SEA DIR/SP/G                  HT/PER
                 (UTC) (F)     (DEG/KT/KT) (MB)    (MI)  (FT/S)
SHEBOYGAN LKSHOR 2000   72     170/ 13/ 13 1017.3F
KEWAUNEE LKSHORE 1942   68     180/ 12/ 14 1016.9F
NORTHPORT PIER   1940   80     150/  7/ 10 1016.6F
N MID LAKE BUOY  1950   69 67  190/ 14/ 16 1017.6F         2/ 4
S GREEN BAY BUOY 2000   77 70  210/  6/  6 1016.7
SISTER BAY LKSHO 1919   90     150/  8/ 10   N/A
MENOMINEE LKSHOR 1942   82     180/ 11/ 15 1016.3F
$$




USA.gov is the U.S. government's official web portal to all federal, state and local government web resources and services.